GW4332 Weather Reports


Display with metric or nautical units.
time (UTC)temp
F
wind
direction
speed
MPH
gust
MPH
rain 1hr
in
rain 24hr
in
rain mn
in
humidity
%
barometer
mb
20260903141030 68 249 17.0 25.0 0.00 0.00 0.06 84 1015.2
20260903140029 69 239 18.0 24.0 0.00 0.00 0.06 83 1015.4
20260903135030 69 247 16.0 23.0 0.00 0.00 0.06 83 1015.5
20260903134030 69 258 19.0 25.0 0.00 0.00 0.06 82 1015.3
20260903133030 69 254 24.0 32.0 0.00 0.00 0.06 81 1015.1
20260903132029 69 263 24.0 32.0 0.00 0.00 0.06 81 1015.1
20260903131030 69 251 24.0 30.0 0.00 0.00 0.06 82 1015.2
20260903130030 69 258 24.0 31.0 0.00 0.00 0.06 82 1015.1
20260903125030 69 252 24.0 31.0 0.00 0.00 0.06 84 1015.1
20260903124030 69 255 23.0 30.0 0.00 0.00 0.06 83 1014.8
20260903123030 68 251 19.0 25.0 0.00 0.00 0.06 84 1014.9
20260903122030 68 239 20.0 28.0 0.00 0.00 0.06 84 1014.9
20260903121030 68 238 19.0 26.0 0.00 0.00 0.06 84 1015.0
20260903120029 68 246 20.0 29.0 0.00 0.00 0.06 84 1014.8
20260903115030 68 253 22.0 27.0 0.00 0.00 0.06 85 1014.8
20260903114030 68 238 22.0 29.0 0.00 0.00 0.06 85 1014.6
20260903113030 68 247 22.0 31.0 0.00 0.00 0.06 85 1014.4
20260903112029 68 247 21.0 31.0 0.00 0.00 0.06 84 1014.4
20260903111030 68 254 23.0 31.0 0.00 0.00 0.06 84 1014.4
20260903110030 68 237 23.0 31.0 0.00 0.00 0.06 85 1014.4
20260903105030 68 256 24.0 34.0 0.00 0.00 0.06 85 1014.3
20260903104029 68 250 25.0 34.0 0.00 0.00 0.06 84 1014.0
20260903103030 68 240 19.0 26.0 0.00 0.00 0.06 85 1014.3
20260903102030 68 244 20.0 27.0 0.00 0.00 0.06 85 1014.3
20260903101029 68 225 19.0 27.0 0.00 0.00 0.06 86 1014.4
20260903100030 68 241 18.0 24.0 0.00 0.00 0.06 86 1014.4
20260903095030 68 236 17.0 23.0 0.00 0.00 0.06 87 1014.5
20260903094030 67 239 19.0 26.0 0.00 0.00 0.06 89 1014.3
20260903093030 67 247 19.0 24.0 0.00 0.00 0.06 90 1014.3
20260903092029 67 214 17.0 25.0 0.00 0.00 0.06 91 1014.2
20260903091030 67 216 15.0 24.0 0.00 0.00 0.06 92 1014.4
20260903090030 66 216 14.0 21.0 0.00 0.00 0.06 93 1014.4
20260903085029 66 219 13.0 23.0 0.00 0.00 0.06 93 1014.3
20260903084030 66 216 10.0 16.0 0.00 0.00 0.06 94 1014.1
20260903083030 66 210 12.0 21.0 0.00 0.00 0.06 94 1014.0
20260903082030 66 227 14.0 21.0 0.00 0.00 0.06 94 1014.1
20260903081030 66 221 14.0 21.0 0.00 0.00 0.06 94 1014.1
20260903080030 65 229 15.0 22.0 0.00 0.00 0.06 94 1014.1
20260903075030 65 228 15.0 23.0 0.00 0.00 0.06 94 1014.0
20260903074029 65 235 18.0 25.0 0.00 0.00 0.06 94 1013.8
20260903073030 65 235 17.0 28.0 0.00 0.00 0.06 94 1013.9
20260903072030 65 216 11.0 19.0 0.00 0.00 0.06 94 1014.1
20260903071030 65 198 9.0 16.0 0.00 0.00 0.04 94 1014.2
20260903070030 64 197 8.0 14.0 0.00 0.00 0.03 93 1014.1
20260903065030 64 199 6.0 14.0 0.00 0.00 0.03 93 1014.0
20260903064030 64 185 8.0 16.0 0.00 0.00 0.02 93 1014.0
20260903063030 64 198 10.0 17.0 0.00 0.00 0.02 93 1013.9
20260903062030 64 209 9.0 18.0 0.00 0.00 0.02 92 1014.0
20260903061030 64 194 7.0 16.0 0.00 0.00 0.02 92 1013.8
20260903060030 64 181 6.0 19.0 0.00 0.00 0.01 92 1013.9
20260903055030 64 205 8.0 13.0 0.00 0.00 0.01 91 1014.0
20260903054029 64 203 8.0 16.0 0.00 0.00 0.01 91 1014.2
20260903053033 64 191 8.0 15.0 0.00 0.00 0.01 91 1014.2
20260903052030 64 196 9.0 17.0 0.00 0.00 0.00 90 1014.2
20260903051030 64 208 9.0 16.0 0.00 0.00 0.00 90 1014.3
20260903050030 64 188 9.0 20.0 0.00 0.00 0.00 89 1014.0
20260903045030 64 180 9.0 17.0 0.00 0.00 0.00 89 1013.9
20260903044030 64 190 7.0 17.0 0.00 0.00 0.00 89 1014.1
20260903043030 64 202 8.0 16.0 0.00 0.00 0.00 88 1014.1
20260903042031 64 193 8.0 16.0 0.00 0.00 0.00 87 1014.2
20260903041029 64 204 9.0 18.0 0.00 0.00 0.00 87 1014.2
20260903040031 64 200 10.0 20.0 0.00 0.00 0.00 86 1014.3
20260903035030 64 196 8.0 16.0 0.00 0.00 0.00 85 1014.4
20260903034030 64 184 9.0 18.0 0.00 0.00 0.00 85 1014.4
20260903033029 64 194 9.0 16.0 0.00 0.00 0.00 84 1014.6
20260903032030 64 193 9.0 18.0 0.00 0.00 0.00 84 1014.6
20260903031030 64 212 10.0 20.0 0.00 0.00 0.00 84 1014.7
20260903030030 64 201 9.0 15.0 0.00 0.00 0.00 83 1014.5
20260903025029 64 193 9.0 16.0 0.00 0.00 0.00 83 1014.7
20260903024030 64 209 9.0 16.0 0.00 0.00 0.00 82 1015.0
20260903023030 64 203 6.0 13.0 0.00 0.00 0.00 83 1015.0
20260903022030 64 208 6.0 11.0 0.00 0.00 0.00 82 1015.1
20260903021030 64 194 5.0 12.0 0.00 0.00 0.00 82 1015.1
20260903020030 64 192 7.0 12.0 0.00 0.00 0.00 82 1015.1
20260903015030 64 193 7.0 13.0 0.00 0.00 0.00 81 1015.1
20260903014030 64 194 6.0 14.0 0.00 0.00 0.00 81 1015.2
20260903013029 64 184 5.0 12.0 0.00 0.00 0.00 80 1015.2
20260903012030 64 194 4.0 16.0 0.00 0.00 0.00 80 1015.3
20260903011030 64 192 7.0 14.0 0.00 0.00 0.00 80 1015.5
20260903010030 64 202 7.0 14.0 0.00 0.00 0.00 80 1015.6
20260903005030 64 190 8.0 15.0 0.00 0.00 0.00 81 1015.8
20260903004030 64 195 7.0 14.0 0.00 0.00 0.00 81 1015.8
20260903003030 64 209 7.0 15.0 0.00 0.00 0.00 81 1015.9
20260903002030 64 198 8.0 19.0 0.00 0.00 0.00 82 1016.0
20260903001030 63 202 7.0 16.0 0.00 0.00 0.00 84 1016.0
20260903000030 63 191 5.0 13.0 0.00 0.00 0.00 85 1016.0
20260902235029 63 188 4.0 12.0 0.00 0.00 0.00 85 1016.1
20260902234030 63 162 2.0 8.0 0.00 0.00 0.00 86 1016.2
20260902233031 63 195 3.0 8.0 0.00 0.00 0.00 86 1016.4
20260902232030 63 174 3.0 8.0 0.00 0.00 0.00 86 1016.6
20260902231030 63 196 5.0 10.0 0.00 0.00 0.00 87 1016.8
20260902230030 63 192 7.0 14.0 0.00 0.00 0.00 87 1017.1
20260902225029 63 190 6.0 16.0 0.00 0.00 0.00 88 1017.1
20260902224030 63 138 1.0 4.0 0.00 0.00 0.00 88 1017.3
20260902223030 63 140 2.0 6.0 0.00 0.00 0.00 88 1017.3
20260902222030 63 137 2.0 5.0 0.00 0.00 0.00 87 1017.4
20260902221030 63 141 1.0 4.0 0.00 0.00 0.00 87 1017.6
20260902220030 63 139 1.0 4.0 0.00 0.00 0.02 87 1017.7
20260902215030 63 178 2.0 8.0 0.00 0.00 0.02 86 1017.7
20260902214030 63 191 4.0 10.0 0.00 0.00 0.02 86 1017.9
20260902213030 63 181 5.0 12.0 0.00 0.00 0.01 86 1018.1
20260902212029 63 193 4.0 9.0 0.00 0.00 0.01 86 1018.1
20260902211030 63 195 3.0 8.0 0.00 0.00 0.01 85 1017.9
20260902210030 63 188 3.0 8.0 0.00 0.00 0.01 85 1018.0
20260902205030 64 143 1.0 7.0 0.00 0.00 0.01 84 1017.9
20260902204030 64 145 2.0 5.0 0.00 0.00 0.01 84 1018.1
20260902203030 64 142 2.0 6.0 0.00 0.00 0.01 83 1018.1
20260902202029 64 159 1.0 5.0 0.00 0.00 0.01 82 1018.3
20260902201030 64 155 1.0 4.0 0.00 0.00 0.00 81 1018.4
20260902200030 64 184 2.0 5.0 0.00 0.00 0.00 81 1018.4
20260902195030 64 199 5.0 10.0 0.00 0.00 0.00 80 1018.5
20260902194030 64 214 5.0 10.0 0.00 0.00 0.00 80 1018.6
20260902193030 64 230 9.0 14.0 0.00 0.00 0.00 79 1018.5
20260902192029 64 239 14.0 27.0 0.00 0.00 0.00 78 1018.6
20260902191030 64 225 22.0 31.0 0.00 0.00 0.00 82 1018.6
20260902190030 66 193 6.0 12.0 0.00 0.00 0.00 77 1018.8
20260902185030 66 200 4.0 9.0 0.00 0.00 0.00 76 1018.8
20260902184030 66 200 5.0 10.0 0.00 0.00 0.00 76 1018.6
20260902183030 66 189 4.0 8.0 0.00 0.00 0.00 76 1018.6
20260902182029 66 204 5.0 8.0 0.00 0.00 0.00 76 1018.6
20260902181030 66 204 5.0 10.0 0.00 0.00 0.00 76 1018.6
20260902180030 66 201 6.0 12.0 0.00 0.00 0.00 75 1018.6
20260902175030 67 209 7.0 14.0 0.00 0.00 0.00 75 1018.7
20260902174030 67 209 7.0 13.0 0.00 0.00 0.00 76 1018.6
20260902173030 67 213 7.0 12.0 0.00 0.00 0.00 76 1018.7
20260902172029 67 219 8.0 13.0 0.00 0.00 0.00 76 1018.7
20260902171030 67 218 8.0 14.0 0.00 0.00 0.00 76 1018.7
20260902170030 67 227 11.0 16.0 0.00 0.00 0.00 76 1018.7
20260902165030 67 218 10.0 15.0 0.00 0.00 0.00 77 1018.6
20260902164030 67 228 10.0 15.0 0.00 0.00 0.00 77 1018.7
20260902163030 67 236 11.0 15.0 0.00 0.00 0.00 76 1018.8
20260902162030 67 236 12.0 16.0 0.00 0.00 0.00 76 1018.7
20260902161030 67 239 12.0 15.0 0.00 0.00 0.00 76 1018.8
20260902160030 68 236 12.0 16.0 0.00 0.00 0.00 75 1018.8
20260902155030 68 235 12.0 16.0 0.00 0.00 0.00 73 1018.9
20260902154030 68 244 13.0 17.0 0.00 0.00 0.00 72 1018.9
20260902153029 68 230 14.0 18.0 0.00 0.00 0.00 72 1019.0
20260902152030 68 239 13.0 18.0 0.00 0.00 0.00 72 1019.0
20260902151030 68 247 14.0 19.0 0.00 0.00 0.00 73 1019.0
20260902150030 68 234 15.0 21.0 0.00 0.00 0.00 72 1019.1
20260902145030 69 263 15.0 18.0 0.00 0.00 0.00 72 1019.3
20260902144029 69 239 11.0 17.0 0.00 0.00 0.00 73 1019.3
20260902143030 68 225 10.0 14.0 0.00 0.00 0.00 74 1019.2
20260902142030 68 250 11.0 15.0 0.00 0.00 0.00 74 1019.2